{"data":{"norad_id":81947,"intl_designator":"","name":"UNKNOWN","alt_names":[],"object_type":"UNKNOWN","status":"UNKNOWN","operator":null,"country":null,"launch_date":null,"launch_site_code":null,"launch_vehicle":null,"mission":null,"orbit_class":"UNKNOWN","rcs_meters":null,"size_class":null,"mass_kg":null,"dimensions":null,"purposes":[],"wikipedia_slug":null,"has_3d_model":false,"image_url":null,"decayed_at":null,"tle_current":{"epoch":"2026-09-12T21:50:53.004480Z","epoch_age_seconds":670860,"freshness":"AGED","line1":"1 81947U          26255.91033570  .00002619  00000+0  24138-3 0  9995","line2":"2 81947  66.0722 121.4442 0375855 331.2343  26.8481 14.55524144670887","mean_motion":14.55524144,"eccentricity":0.0375855,"inclination_deg":66.0722,"raan_deg":121.4442,"arg_perigee_deg":331.2343,"mean_anomaly_deg":26.8481,"bstar":0.00024138,"rev_number":67088,"period_min":98.933432738715,"perigee_km":441.33980158255,"apogee_km":973.98648412085,"semimajor_km":7085.8001428517,"source":"CELESTRAK","updated_at":"2026-09-20T09:00:32.428822Z"}}}